Find Qianfan Jigui 06-16

NORAD ID: 62800 Int'l Des: 2025-016 Owner: YUANX Country: CN Constellation: qianfan operational
LEOCIRCULARPOLAR

リアルタイム位置

3D地球を読み込み中...

Qianfan Jigui 06-16について

説明を読み込み中...

次回通過

Passes for default location (London). Set your location on the main map for personalized predictions.

高度履歴

Loading altitude history...

軌道要素

1 62800U 25016R 26105.91870716 .00000022 00000-0 15801-4 0 9996
2 62800 88.9688 90.2274 0014832 345.0040 15.0669 13.51008939 64009
Epoch: Apr 15, 2026 • Age: 6 hours

現在のステータス

高度 1071.8 km
速度 7.32 km/s
衛星直下点 49.52°N, 167.26°W
打ち上げ日 Jan 23, 2025
運用期間 1.2 years
タイプ internet

技術仕様

分類 Payload
質量 267.00 kg
乾燥質量 267.00 kg
総質量 267.00 kg
長さ 0.30 m
直径 3.00 m
スパン 10.00 m
形状 Box+pan
製造者 SECM
バスタイプ Qianfan
フェーズステータス In Orbit
所有者/国 YUANX/CN

Most Searched